STARLINK-2419, 47830

Orbit data source: Space-Track

STARLINK-2419, 47830 is a payload satellite owned by SpaceX/Seattle (US) in LEO that was launched on Thu, 11 Mar 2021 UTC via an FALCON 9 launch vehicle from the Air Force Eastern Test Range (AFETR). Payload-class satellites include a variety of spacecraft equipped with specific instruments for various scientific and technological missions. These include communications satellites like Starlink; space stations such as the ISS; scientific satellites like the Hubble; Earth observation satellites from companies like Planet Labs, Umbra, and HawkEye 360; GPS; miniature CubeSats for education and research; and military/defense satellites.

Loading next visibility...
Identifier
47830, 2021-018AV
Orbit
LEO
Country
Flag of USUS
Related business
Manufacturer
SpaceX/Seattle
Mission
Operational Commercial Communications
Bus & Motor
STARLINK, Unknown motor
Mass
260 kg wet, ~248 kg dry
Launch date (UTC)
2021-03-11 (5 years ago)
Launch vehicle
FALCON 9
Launch site
Air Force Eastern Test Range (AFETR)
Object type
Payload
Rocket body
Debris
Shape & HBR
Box + 1 Pan, 10.1 m
Radar Cross Section
13.562 m², Large (>1 m²)

Expand to show TLE details & history
Last TLE update: 6 hours ago

TLE from 6 hours ago
0 STARLINK-2419
1 47830U 21018AV  26035.50002314  .00900904  00000-0  31249-1 0  9997
2 47830  53.1450  49.7692 0001667  81.9780  43.0965 15.26873035  5824
Epoch: 2026-02-04T12:00Z
TLE epoch observation values (Epoch: 2026-02-04T12:00:01.999Z)
Latitude
41.0324°
Longitude
-125.35257°
Altitude
488.14 km
Speed
7.627 km/s
True Right ascension
12h 37m 17s
True Declination
40° 51' 20"
Sunlit
Object was in full shadow at epoch
Visualization orbit readout
Latitude
Unknown
Longitude
Unknown
Altitude
Unknown
Speed
Unknown
Apparent Right ascension
Unknown
Apparent Declination
Unknown
Sunlit
N/A
Visualization observer readout
Local Sidereal Time
20:03:11
Azimuth
Unknown
Elevation
Unknown
Doppler factor
Unknown
Orbital elements
Apogee altitude
486.569 km
Perigee altitude
484.281 km
Semi-major axis
6,863.562 km
Eccentricity
0.00017
Inclination
53.145°
RAAN
49.7692°
Arg. of periapsis
81.978°
True anomaly
43.10955°
Mean anomaly
43.0965°
Eccentric anomaly
43.10303°
Mean motion
3.81697 °/min
Orbital period
94.32 mins
BSTAR
0.031249
Loading maneuver chart data...
Computing Atmospheric mass density...
Loading historical data...
Loading historical data...
Loading historical data...
Loading historical data...
Loading historical data...
Loading historical data...
Loading historical data...

Documentation

Showing up to 5 results
|